ANR weather

Antwerp International Airport (Deurne)
Antwerp, Antwerp, Belgium

Public forecast

Using degrees Celsius for public forecast. Weather courtesy of forecast.io.

Current aviation weather report (METAR) for Antwerp International Airport (Deurne)

Retrieved 2019/11/21 07:20 UTC (13 minutes ago):

EBAW 210720Z 09008KT 1800 BR BKN003 M00/M01 Q1009 NOSIG

Aviation forecast (TAF) for Antwerp International Airport (Deurne)

Forecast is more than 12 hours old.

Retrieved 2019/07/25 18:27 UTC (4 months ago):

TAF TAF EBAW 251700Z 2518/2606 11007KT CAVOK PROB30 TEMPO 2518/2520 VRB15G30KT 3500 SHRA TSRA